Location: Hilton Head Island
(32.2163°N, 80.7526°W)
Time: 18:45:25
(UTC-04:00)

A-11 Canister half - Pass Details

Date: 25 February 2026
Orbit: 1525 x 1683 km, 47.3° (Epoch: 10 March)

Event Time Altitude Azimuth Distance (km) Brightness Sun altitude
Rises 19:37:23 0° 306° (NW) 4,688 12.5 -17.6°
Reaches altitude 10° 19:40:37 10° 312° (NW) 3,697 11.7 -18.3°
Maximum altitude 19:49:31 47° 25° (NNE) 1,931 9.3 -20.2°
Enters shadow 19:53:47 30° 79° (E) 2,465 9.5 -21.1°
